Time,TemperatureF,DewpointF,PressureIn,WindDirection,WindDirectionDegrees,WindSpeedMPH,WindSpeedGustMPH,Humidity,HourlyPrecipIn,Conditions,Clouds,dailyrainin,SoftwareType,DateUTC
2013-01-12 00:02:00,40.0,27.0,30.47,NNE,30,0.0,3.0,60,-99.99,,,-99.99,,2013-01-11 15:02:00,
2013-01-12 00:12:00,40.0,27.0,30.47,NE,39,0.0,3.0,60,-99.99,,,-99.99,,2013-01-11 15:12:00,
2013-01-12 00:22:00,40.0,27.0,30.47,NE,39,0.0,3.0,60,-99.99,,,-99.99,,2013-01-11 15:22:00,
2013-01-12 00:32:00,40.0,27.0,30.47,North,8,0.0,3.0,60,-99.99,,,-99.99,,2013-01-11 15:32:00,
2013-01-12 00:42:00,40.0,27.0,30.47,North,8,0.0,3.0,60,-99.99,,,-99.99,,2013-01-11 15:42:00,
2013-01-12 00:53:00,40.0,27.0,30.46,NE,55,1.0,3.0,60,-99.99,,,-99.99,,2013-01-11 15:53:00,
2013-01-12 01:02:00,39.0,26.0,30.46,ENE,62,0.0,3.0,60,-99.99,,,-99.99,,2013-01-11 16:02:00,
2013-01-12 01:12:00,39.0,27.0,30.46,NNE,13,0.0,3.0,61,-99.99,,,-99.99,,2013-01-11 16:12:00,
2013-01-12 01:22:00,39.0,27.0,30.46,NNE,13,0.0,3.0,61,-99.99,,,-99.99,,2013-01-11 16:22:00,
2013-01-12 01:32:00,39.0,27.0,30.45,NE,48,1.0,3.0,62,-99.99,,,-99.99,,2013-01-11 16:32:00,
2013-01-12 01:42:00,39.0,27.0,30.45,ENE,77,0.0,3.0,63,-99.99,,,-99.99,,2013-01-11 16:42:00,
2013-01-12 01:53:00,39.0,27.0,30.45,ENE,77,0.0,3.0,63,-99.99,,,-99.99,,2013-01-11 16:53:00,
2013-01-12 02:02:00,39.0,27.0,30.45,NE,53,0.0,3.0,62,-99.99,,,-99.99,,2013-01-11 17:02:00,
2013-01-12 02:12:00,39.0,27.0,30.45,ENE,63,0.0,3.0,63,-99.99,,,-99.99,,2013-01-11 17:12:00,
2013-01-12 02:22:00,39.0,27.0,30.45,ENE,63,0.0,3.0,63,-99.99,,,-99.99,,2013-01-11 17:22:00,
2013-01-12 02:32:00,38.0,27.0,30.45,NE,48,0.0,3.0,63,-99.99,,,-99.99,,2013-01-11 17:32:00,
2013-01-12 02:42:00,38.0,27.0,30.45,NE,48,0.0,3.0,63,-99.99,,,-99.99,,2013-01-11 17:42:00,
2013-01-12 02:53:00,38.0,27.0,30.45,NNE,28,1.0,3.0,64,-99.99,,,-99.99,,2013-01-11 17:53:00,
2013-01-12 03:02:00,38.0,27.0,30.45,North,353,0.0,3.0,65,-99.99,,,-99.99,,2013-01-11 18:02:00,
2013-01-12 03:12:00,38.0,27.0,30.45,North,353,0.0,3.0,65,-99.99,,,-99.99,,2013-01-11 18:12:00,
2013-01-12 03:22:00,38.0,27.0,30.45,NNE,30,0.0,3.0,64,-99.99,,,-99.99,,2013-01-11 18:22:00,
2013-01-12 03:32:00,38.0,28.0,30.44,North,353,0.0,3.0,66,-99.99,,,-99.99,,2013-01-11 18:32:00,
2013-01-12 03:42:00,38.0,28.0,30.44,North,353,0.0,3.0,66,-99.99,,,-99.99,,2013-01-11 18:42:00,
2013-01-12 03:53:00,38.0,28.0,30.45,NNW,328,0.0,3.0,66,-99.99,,,-99.99,,2013-01-11 18:53:00,
2013-01-12 04:02:00,38.0,28.0,30.44,WNW,300,1.0,3.0,66,-99.99,,,-99.99,,2013-01-11 19:02:00,
2013-01-12 04:12:00,38.0,28.0,30.44,WNW,300,1.0,3.0,66,-99.99,,,-99.99,,2013-01-11 19:12:00,
2013-01-12 04:22:00,38.0,28.0,30.45,NE,37,0.0,3.0,67,-99.99,,,-99.99,,2013-01-11 19:22:00,
2013-01-12 04:32:00,38.0,28.0,30.44,NNE,17,0.0,3.0,67,-99.99,,,-99.99,,2013-01-11 19:32:00,
2013-01-12 04:42:00,38.0,28.0,30.44,NNE,17,0.0,3.0,67,-99.99,,,-99.99,,2013-01-11 19:42:00,
2013-01-12 04:53:00,38.0,28.0,30.44,NE,39,0.0,3.0,68,-99.99,,,-99.99,,2013-01-11 19:53:00,
2013-01-12 05:02:00,38.0,28.0,30.43,East,80,0.0,3.0,68,-99.99,,,-99.99,,2013-01-11 20:02:00,
2013-01-12 05:11:00,38.0,28.0,30.43,East,80,0.0,3.0,68,-99.99,,,-99.99,,2013-01-11 20:11:00,
2013-01-12 05:22:00,38.0,28.0,30.42,NE,35,0.0,3.0,68,-99.99,,,-99.99,,2013-01-11 20:22:00,
2013-01-12 05:32:00,38.0,28.0,30.42,NE,51,0.0,3.0,68,-99.99,,,-99.99,,2013-01-11 20:32:00,
2013-01-12 05:42:00,38.0,28.0,30.42,NE,51,0.0,3.0,68,-99.99,,,-99.99,,2013-01-11 20:42:00,
2013-01-12 05:53:00,38.0,28.0,30.42,NNW,345,0.0,3.0,67,-99.99,,,-99.99,,2013-01-11 20:53:00,
2013-01-12 06:02:00,37.0,27.0,30.42,NNE,30,1.0,3.0,67,-99.99,,,-99.99,,2013-01-11 21:02:00,
2013-01-12 06:12:00,37.0,27.0,30.43,NNE,28,0.0,3.0,68,-99.99,,,-99.99,,2013-01-11 21:12:00,
2013-01-12 06:22:00,37.0,27.0,30.43,NNE,28,0.0,3.0,68,-99.99,,,-99.99,,2013-01-11 21:22:00,
2013-01-12 06:32:00,37.0,27.0,30.43,NNE,13,0.0,3.0,68,-99.99,,,-99.99,,2013-01-11 21:32:00,
2013-01-12 06:42:00,37.0,27.0,30.43,NNE,13,0.0,3.0,68,-99.99,,,-99.99,,2013-01-11 21:42:00,
2013-01-12 06:53:00,37.0,27.0,30.44,NNE,30,0.0,3.0,68,-99.99,,,-99.99,,2013-01-11 21:53:00,
2013-01-12 07:02:00,37.0,28.0,30.43,SE,134,0.0,3.0,69,-99.99,,,-99.99,,2013-01-11 22:02:00,
2013-01-12 07:12:00,37.0,28.0,30.43,North,354,0.0,3.0,69,-99.99,,,-99.99,,2013-01-11 22:12:00,
2013-01-12 07:22:00,37.0,28.0,30.43,North,354,0.0,3.0,69,-99.99,,,-99.99,,2013-01-11 22:22:00,
2013-01-12 07:32:00,37.0,28.0,30.44,North,349,0.0,3.0,69,-99.99,,,-99.99,,2013-01-11 22:32:00,
2013-01-12 07:42:00,37.0,28.0,30.44,North,349,0.0,3.0,69,-99.99,,,-99.99,,2013-01-11 22:42:00,
2013-01-12 07:52:00,37.0,28.0,30.44,NNE,32,0.0,3.0,70,-99.99,,,-99.99,,2013-01-11 22:52:00,
2013-01-12 08:02:00,37.0,28.0,30.43,West,267,0.0,3.0,70,-99.99,,,-99.99,,2013-01-11 23:02:00,
2013-01-12 08:12:00,37.0,28.0,30.43,ENE,69,0.0,3.0,69,-99.99,,,-99.99,,2013-01-11 23:12:00,
2013-01-12 08:22:00,37.0,28.0,30.43,ENE,69,0.0,3.0,69,-99.99,,,-99.99,,2013-01-11 23:22:00,
2013-01-12 08:32:00,37.0,28.0,30.44,NE,44,0.0,3.0,69,-99.99,,,-99.99,,2013-01-11 23:32:00,
2013-01-12 08:42:00,37.0,28.0,30.44,NE,44,0.0,3.0,69,-99.99,,,-99.99,,2013-01-11 23:42:00,
2013-01-12 08:53:00,38.0,29.0,30.43,NNE,32,0.0,3.0,70,-99.99,,,-99.99,,2013-01-11 23:53:00,
2013-01-12 09:02:00,38.0,29.0,30.43,NE,44,0.0,3.0,70,-99.99,,,-99.99,,2013-01-12 00:02:00,
2013-01-12 09:12:00,38.0,29.0,30.42,North,349,0.0,3.0,71,-99.99,,,-99.99,,2013-01-12 00:12:00,
2013-01-12 09:22:00,38.0,29.0,30.42,North,349,0.0,3.0,71,-99.99,,,-99.99,,2013-01-12 00:22:00,
2013-01-12 09:32:00,39.0,30.0,30.43,NNE,17,0.0,3.0,69,-99.99,,,-99.99,,2013-01-12 00:32:00,
2013-01-12 09:42:00,39.0,30.0,30.43,NNE,17,0.0,3.0,69,-99.99,,,-99.99,,2013-01-12 00:42:00,
2013-01-12 09:52:00,40.0,31.0,30.43,ENE,77,0.0,3.0,69,-99.99,,,-99.99,,2013-01-12 00:52:00,
2013-01-12 10:02:00,41.0,31.0,30.43,NNE,30,1.0,3.0,68,-99.99,,,-99.99,,2013-01-12 01:02:00,
2013-01-12 10:12:00,41.0,31.0,30.43,NNE,30,1.0,3.0,68,-99.99,,,-99.99,,2013-01-12 01:12:00,
2013-01-12 10:22:00,41.0,31.0,30.43,ENE,73,0.0,3.0,67,-99.99,,,-99.99,,2013-01-12 01:22:00,
2013-01-12 10:32:00,42.0,31.0,30.42,NE,37,0.0,3.0,66,-99.99,,,-99.99,,2013-01-12 01:32:00,
2013-01-12 10:42:00,42.0,31.0,30.42,NE,37,0.0,3.0,66,-99.99,,,-99.99,,2013-01-12 01:42:00,
2013-01-12 10:52:00,43.0,32.0,30.44,South,179,0.0,3.0,64,-99.99,,,-99.99,,2013-01-12 01:52:00,
2013-01-12 11:02:00,44.0,32.0,30.43,South,179,0.0,3.0,63,-99.99,,,-99.99,,2013-01-12 02:02:00,
2013-01-12 11:11:00,44.0,32.0,30.43,South,179,0.0,3.0,63,-99.99,,,-99.99,,2013-01-12 02:11:00,
2013-01-12 11:22:00,45.0,33.0,30.41,NNW,335,0.0,3.0,63,-99.99,,,-99.99,,2013-01-12 02:22:00,
2013-01-12 11:32:00,46.0,33.0,30.41,East,84,0.0,3.0,61,-99.99,,,-99.99,,2013-01-12 02:32:00,
2013-01-12 11:42:00,46.0,33.0,30.41,East,84,0.0,3.0,61,-99.99,,,-99.99,,2013-01-12 02:42:00,
2013-01-12 11:53:00,47.0,34.0,30.41,SE,134,0.0,3.0,60,-99.99,,,-99.99,,2013-01-12 02:53:00,
2013-01-12 12:02:00,47.0,33.0,30.40,South,179,0.0,3.0,57,-99.99,,,-99.99,,2013-01-12 03:02:00,
2013-01-12 12:11:00,47.0,33.0,30.40,South,179,0.0,3.0,57,-99.99,,,-99.99,,2013-01-12 03:11:00,
2013-01-12 12:22:00,48.0,34.0,30.39,South,169,0.0,3.0,57,-99.99,,,-99.99,,2013-01-12 03:22:00,
2013-01-12 12:32:00,48.0,32.0,30.37,SW,226,0.0,3.0,54,-99.99,,,-99.99,,2013-01-12 03:32:00,
2013-01-12 12:42:00,48.0,32.0,30.37,SW,226,0.0,3.0,54,-99.99,,,-99.99,,2013-01-12 03:42:00,
2013-01-12 12:53:00,50.0,34.0,30.37,WNW,298,0.0,3.0,54,-99.99,,,-99.99,,2013-01-12 03:53:00,
2013-01-12 13:02:00,52.0,34.0,30.37,SSW,205,0.0,3.0,51,-99.99,,,-99.99,,2013-01-12 04:02:00,
2013-01-12 13:11:00,52.0,34.0,30.36,South,179,0.0,3.0,51,-99.99,,,-99.99,,2013-01-12 04:11:00,
2013-01-12 13:22:00,52.0,34.0,30.36,South,179,0.0,3.0,51,-99.99,,,-99.99,,2013-01-12 04:22:00,
2013-01-12 13:32:00,54.0,35.0,30.35,SW,229,0.0,3.0,49,-99.99,,,-99.99,,2013-01-12 04:32:00,
2013-01-12 13:42:00,54.0,35.0,30.35,SW,229,0.0,3.0,49,-99.99,,,-99.99,,2013-01-12 04:42:00,
2013-01-12 13:52:00,54.0,35.0,30.36,SSE,165,0.0,3.0,48,-99.99,,,-99.99,,2013-01-12 04:52:00,
2013-01-12 14:02:00,55.0,35.0,30.36,West,259,0.0,3.0,47,-99.99,,,-99.99,,2013-01-12 05:02:00,
2013-01-12 14:12:00,55.0,35.0,30.36,West,259,0.0,3.0,47,-99.99,,,-99.99,,2013-01-12 05:12:00,
2013-01-12 14:22:00,55.0,35.0,30.35,SW,224,1.0,3.0,46,-99.99,,,-99.99,,2013-01-12 05:22:00,
2013-01-12 14:32:00,54.0,34.0,30.35,SW,229,1.0,3.0,46,-99.99,,,-99.99,,2013-01-12 05:32:00,
2013-01-12 14:42:00,54.0,34.0,30.35,SW,229,1.0,3.0,46,-99.99,,,-99.99,,2013-01-12 05:42:00,
2013-01-12 14:52:00,55.0,35.0,30.35,SSW,193,1.0,3.0,47,-99.99,,,-99.99,,2013-01-12 05:52:00,
2013-01-12 15:02:00,54.0,35.0,30.36,SW,219,1.0,3.0,48,-99.99,,,-99.99,,2013-01-12 06:02:00,
2013-01-12 15:12:00,54.0,35.0,30.36,SW,219,1.0,3.0,48,-99.99,,,-99.99,,2013-01-12 06:12:00,
2013-01-12 15:22:00,55.0,36.0,30.35,SSW,211,1.0,3.0,48,-99.99,,,-99.99,,2013-01-12 06:22:00,
2013-01-12 15:32:00,54.0,36.0,30.35,WSW,255,4.0,4.0,50,-99.99,,,-99.99,,2013-01-12 06:32:00,
2013-01-12 15:42:00,54.0,36.0,30.35,WSW,255,4.0,4.0,50,-99.99,,,-99.99,,2013-01-12 06:42:00,
2013-01-12 15:52:00,54.0,36.0,30.35,SW,224,1.0,3.0,51,-99.99,,,-99.99,,2013-01-12 06:52:00,
2013-01-12 16:02:00,54.0,36.0,30.35,NW,322,6.0,6.0,51,-99.99,,,-99.99,,2013-01-12 07:02:00,
2013-01-12 16:11:00,53.0,35.0,30.36,SW,232,9.0,9.0,51,-99.99,,,-99.99,,2013-01-12 07:11:00,
2013-01-12 16:21:00,53.0,35.0,30.36,SW,232,9.0,9.0,51,-99.99,,,-99.99,,2013-01-12 07:21:00,
2013-01-12 16:32:00,52.0,35.0,30.36,WNW,298,6.0,6.0,53,-99.99,,,-99.99,,2013-01-12 07:32:00,
2013-01-12 16:42:00,52.0,35.0,30.36,WNW,298,6.0,6.0,53,-99.99,,,-99.99,,2013-01-12 07:42:00,
2013-01-12 16:52:00,52.0,36.0,30.36,SW,219,0.0,3.0,54,-99.99,,,-99.99,,2013-01-12 07:52:00,
2013-01-12 17:01:00,52.0,36.0,30.35,SW,218,0.0,3.0,54,-99.99,,,-99.99,,2013-01-12 08:01:00,
2013-01-12 17:11:00,52.0,36.0,30.35,SW,218,0.0,3.0,54,-99.99,,,-99.99,,2013-01-12 08:11:00,
2013-01-12 17:22:00,51.0,35.0,30.35,SW,218,0.0,3.0,55,-99.99,,,-99.99,,2013-01-12 08:22:00,
2013-01-12 17:32:00,50.0,35.0,30.36,WSW,243,4.0,4.0,56,-99.99,,,-99.99,,2013-01-12 08:32:00,
2013-01-12 17:42:00,50.0,35.0,30.36,WSW,243,4.0,4.0,56,-99.99,,,-99.99,,2013-01-12 08:42:00,
2013-01-12 17:52:00,49.0,34.0,30.35,SW,217,0.0,3.0,57,-99.99,,,-99.99,,2013-01-12 08:52:00,
2013-01-12 18:02:00,49.0,35.0,30.35,West,278,0.0,3.0,59,-99.99,,,-99.99,,2013-01-12 09:02:00,
2013-01-12 18:11:00,49.0,35.0,30.35,West,278,0.0,3.0,59,-99.99,,,-99.99,,2013-01-12 09:11:00,
2013-01-12 18:22:00,49.0,35.0,30.35,North,0,0.0,3.0,59,-99.99,,,-99.99,,2013-01-12 09:22:00,
2013-01-12 18:32:00,49.0,36.0,30.35,SW,224,0.0,3.0,60,-99.99,,,-99.99,,2013-01-12 09:32:00,
2013-01-12 18:42:00,49.0,36.0,30.35,SW,224,0.0,3.0,60,-99.99,,,-99.99,,2013-01-12 09:42:00,
2013-01-12 18:53:00,49.0,36.0,30.35,WSW,240,0.0,3.0,60,-99.99,,,-99.99,,2013-01-12 09:53:00,
2013-01-12 19:02:00,48.0,35.0,30.35,West,267,0.0,3.0,61,-99.99,,,-99.99,,2013-01-12 10:02:00,
2013-01-12 19:11:00,48.0,35.0,30.35,West,267,0.0,3.0,61,-99.99,,,-99.99,,2013-01-12 10:11:00,
2013-01-12 19:22:00,48.0,35.0,30.36,NW,312,0.0,3.0,61,-99.99,,,-99.99,,2013-01-12 10:22:00,
2013-01-12 19:32:00,48.0,36.0,30.36,NW,312,0.0,3.0,63,-99.99,,,-99.99,,2013-01-12 10:32:00,
2013-01-12 19:42:00,48.0,36.0,30.36,NW,312,0.0,3.0,63,-99.99,,,-99.99,,2013-01-12 10:42:00,
2013-01-12 19:52:00,48.0,36.0,30.36,NW,312,0.0,3.0,64,-99.99,,,-99.99,,2013-01-12 10:52:00,
2013-01-12 20:02:00,47.0,35.0,30.37,South,179,0.0,3.0,63,-99.99,,,-99.99,,2013-01-12 11:02:00,
2013-01-12 20:11:00,47.0,36.0,30.37,NNE,32,0.0,3.0,65,-99.99,,,-99.99,,2013-01-12 11:11:00,
2013-01-12 20:22:00,47.0,36.0,30.37,NNE,32,0.0,3.0,65,-99.99,,,-99.99,,2013-01-12 11:22:00,
2013-01-12 20:32:00,47.0,36.0,30.37,East,84,0.0,3.0,65,-99.99,,,-99.99,,2013-01-12 11:32:00,
2013-01-12 20:42:00,47.0,36.0,30.37,East,84,0.0,3.0,65,-99.99,,,-99.99,,2013-01-12 11:42:00,
2013-01-12 20:53:00,46.0,35.0,30.38,North,10,0.0,3.0,66,-99.99,,,-99.99,,2013-01-12 11:53:00,
2013-01-12 21:02:00,46.0,35.0,30.38,NNW,336,0.0,3.0,66,-99.99,,,-99.99,,2013-01-12 12:02:00,
2013-01-12 21:11:00,46.0,35.0,30.38,NNW,336,0.0,3.0,66,-99.99,,,-99.99,,2013-01-12 12:11:00,
2013-01-12 21:22:00,46.0,35.0,30.38,NE,37,0.0,3.0,66,-99.99,,,-99.99,,2013-01-12 12:22:00,
2013-01-12 21:32:00,45.0,35.0,30.37,North,0,0.0,3.0,67,-99.99,,,-99.99,,2013-01-12 12:32:00,
2013-01-12 21:42:00,45.0,35.0,30.37,North,0,0.0,3.0,67,-99.99,,,-99.99,,2013-01-12 12:42:00,
2013-01-12 21:52:00,45.0,35.0,30.38,North,0,0.0,3.0,68,-99.99,,,-99.99,,2013-01-12 12:52:00,
2013-01-12 22:02:00,45.0,35.0,30.38,North,8,0.0,3.0,69,-99.99,,,-99.99,,2013-01-12 13:02:00,
2013-01-12 22:11:00,45.0,35.0,30.38,North,8,0.0,3.0,69,-99.99,,,-99.99,,2013-01-12 13:11:00,
2013-01-12 22:22:00,44.0,34.0,30.39,South,179,0.0,3.0,68,-99.99,,,-99.99,,2013-01-12 13:22:00,
2013-01-12 22:32:00,44.0,34.0,30.39,NW,312,0.0,3.0,69,-99.99,,,-99.99,,2013-01-12 13:32:00,
2013-01-12 22:42:00,44.0,34.0,30.39,NW,312,0.0,3.0,69,-99.99,,,-99.99,,2013-01-12 13:42:00,
2013-01-12 22:53:00,44.0,34.0,30.39,NW,312,0.0,3.0,69,-99.99,,,-99.99,,2013-01-12 13:53:00,
2013-01-12 23:01:00,44.0,34.0,30.40,East,89,0.0,3.0,69,-99.99,,,-99.99,,2013-01-12 14:01:00,
2013-01-12 23:12:00,44.0,34.0,30.40,East,89,0.0,3.0,69,-99.99,,,-99.99,,2013-01-12 14:12:00,
2013-01-12 23:22:00,44.0,35.0,30.39,NE,44,0.0,3.0,70,-99.99,,,-99.99,,2013-01-12 14:22:00,
2013-01-12 23:32:00,43.0,34.0,30.39,NNE,27,0.0,3.0,71,-99.99,,,-99.99,,2013-01-12 14:32:00,
2013-01-12 23:42:00,43.0,34.0,30.39,NNE,27,0.0,3.0,71,-99.99,,,-99.99,,2013-01-12 14:42:00,
2013-01-12 23:53:00,43.0,34.0,30.39,NE,44,0.0,3.0,70,-99.99,,,-99.99,,2013-01-12 14:53:00,